ZAREMBO AK US current weather conditions

sailwx.info

Wind from 228 at 6 knots gusting 12

Air temperature 6.7° C
Dewpoint 3.1° C

Last reported at 2014-Oct-26 01:55 UTC.
Time now 2014-Oct-26 03:48 UTC

Location: N 56°18' W 132°51'.
View on Google Maps.

See reports from other nearby stations

  
Tides and Currents Weather Stations Pressure Air Temp Water Temp Dewpoint Dewpoint Depression Visibility Wind Speed Wind Dir Waves Ship Positions
date/time (UTC)wind fromknots sea level pressurealtimeterstation pressurevisibilityair tempwater tempwave heightnotes
2014-Oct-26 01:55 228 6 gusting 12 6.7
2014-Oct-26 00:55 191 5 gusting 9 8.3
2014-Oct-25 23:55 194 4 gusting 11 10.0
2014-Oct-25 22:55 213 6 gusting 16 10.6
2014-Oct-25 21:55 215 7 gusting 13 10.6
2014-Oct-25 20:55 237 8 gusting 13 10.6
2014-Oct-25 19:55 228 7 gusting 12 9.4
2014-Oct-25 18:55 230 9 gusting 15 8.3
2014-Oct-25 17:55 235 7 gusting 13 6.7
2014-Oct-25 16:55 234 9 gusting 14 6.7
2014-Oct-25 15:55 229 10 gusting 13 6.1
2014-Oct-25 14:55 240 7 gusting 12 5.6
2014-Oct-25 13:55 238 8 gusting 13 5.6
2014-Oct-25 12:55 228 9 gusting 13 6.1
2014-Oct-25 11:55 230 7 gusting 12 6.1
2014-Oct-25 10:55 230 7 gusting 10 5.6
2014-Oct-25 09:55 258 4 gusting 9 5.6
2014-Oct-25 08:55 254 5 gusting 9 5.6
2014-Oct-25 07:55 237 5 gusting 7 6.1
2014-Oct-25 06:55 259 4 gusting 10 6.1
2014-Oct-25 05:55 230 3 gusting 5 6.7
2014-Oct-25 04:55 258 2 gusting 10 6.7
2014-Oct-25 03:55 237 6 gusting 10 6.7
2014-Oct-25 02:55 241 6 gusting 9 6.7
2014-Oct-25 01:55 247 6 gusting 8 6.7
2014-Oct-25 00:55 255 5 gusting 9 7.2
2014-Oct-24 23:55 280 2 gusting 10 7.2
2014-Oct-24 22:55 250 3 gusting 7 8.3
2014-Oct-24 21:55 254 4 gusting 8 8.9
2014-Oct-24 20:55 262 2 gusting 6 8.3
2014-Oct-24 19:55 269 2 gusting 9 7.8
2014-Oct-24 18:55 260 4 gusting 9 6.7
2014-Oct-24 17:55 253 5 gusting 7 5.6
2014-Oct-24 16:55 242 4 gusting 9 5.0
2014-Oct-24 15:55 252 5 gusting 9 5.0
2014-Oct-24 14:55 248 5 gusting 8 4.4
2014-Oct-24 13:55 238 4 gusting 7 4.4
2014-Oct-24 12:55 246 2 gusting 5 4.4
2014-Oct-24 11:55 193 1 gusting 6 5.0
2014-Oct-24 10:55 247 5 gusting 7 5.6
2014-Oct-24 09:55 247 3 gusting 5 5.0
2014-Oct-24 08:55 233 3 gusting 7 5.6
2014-Oct-24 07:55 242 5 gusting 9 5.6
2014-Oct-24 06:55 253 4 gusting 6 5.0
2014-Oct-24 05:55 167 1 gusting 3 5.0
2014-Oct-24 04:55 302 1 gusting 3 5.0
2014-Oct-24 03:55 197 1 gusting 11 5.6